Location: Home
(42.5358°N, 72.7383°W)
Time: 17:55:12
(UTC-05:00)

Tiros 1 - Pass Details

Date: 29 November 2021
Orbit: 629 x 664 km, 48.4° (Epoch: 18 January)

Event Time Altitude Azimuth Distance (km) Brightness Sun altitude
Rises 00:33:51 0° 294° (WNW) 2,965 - -66.1°
Reaches altitude 10° 00:36:14 10° 299° (WNW) 2,058 - -65.8°
Maximum altitude 00:40:54 56° 17° (NNE) 782 - -65.3°
Drops below altitude 10° 00:45:37 10° 96° (E) 2,072 - -64.8°
Sets 00:48:00 0° 101° (E) 2,986 - -64.5°
